Find Starlink 3617

NORAD ID: 51780 Int'l Des: 2022-017 Owner: SPXS Country: US Constellation: starlink operational
LEOCIRCULAR

Current View

Loading 3D Globe...

About Starlink 3617

Starlink 3617 (NORAD 51780) is a starlink constellation satellite (v1.5) launched Feb 25, 2022 by SPXS of US. It operates in LEO, CIRCULAR orbit with a mass of 297.00 kg.

About Starlink 3617

Description loading...

Upcoming Passes

Passes for default location (London). Set your location on the main map for personalized predictions.

Altitude History

Loading altitude history...

Two-Line Element Set

1 51780U 22017N 26171.44754032 -.00001737 00000-0 -91129-4 0 9995
2 51780 53.1579 237.6958 0000896 73.8205 286.2885 15.08814319237934
Epoch: Jun 20, 2026 • Age: 45 hours

Current Status

Altitude 543.5 km
Velocity 7.60 km/s
Sub-Earth Point 42.93°N, 109.97°W
Launch Date Feb 25, 2022
Age 4.3 years
Type internet

Technical Details

Classification Payload
Mass 297.00 kg
Dry Mass 275.00 kg
Total Mass 297.00 kg
Length 0.20 m
Diameter 2.80 m
Span 9.00 m
Shape Box + pan
Manufacturer SPXS
Bus Type Starlink
Phase Status In Orbit
Owner/State SPXS/US

Most Searched